Back to catalog

CZ-6A DEB

AlivePO
NORAD 60837·DEBRIS·🇨🇳 China

Launched Aug 6, 2024 from Taiyuan Satellite Launch Center

Loading…

Next Passes (next 24 hours)

TLE

FreshSource: Space-Track

Epoch: Sep 14, 2026, 07:54 UTC

1 60837U 24140HQ  26257.32981376  .00000609  00000-0  29544-3 0  9998
2 60837  89.1640 280.4133 0062237 274.2351  85.1726 14.16277632107836

Track CZ-6A DEB in real time with AllMySat

Download on the App Store